Location: Ballingbuur
(53.0000°N, 5.7667°E)
Time: 05:43:39
(UTC+00:00)

Cosmos 1356 - Pass Details

Date: 29 November 2020
Orbit: 441 x 444 km, 81.1° (Epoch: 23 January)

Event Time Altitude Azimuth Distance (km) Brightness Sun altitude
Rises 05:56:35 0° 181° (S) 2,422 7.4 -12.6°
Reaches altitude 10° 05:58:39 10° 177° (S) 1,558 6.4 -12.3°
Maximum altitude 06:01:59 55° 99° (E) 542 4.2 -11.8°
Drops below altitude 10° 06:05:21 10° 21° (NNE) 1,574 6.2 -11.3°
Sets 06:07:26 0° 17° (NNE) 2,451 7.1 -11.0°
